Weather History for Poteau, OK

Change the Weather History Date:

Friday, October 11, 2013

  Actual Average (KFSM) Record (KFSM)
Temperature  
Mean Temperature 68 °F 64 °F  
Max Temperature 82 °F 76 °F 96 °F (1963)
Min Temperature 55 °F 52 °F 36 °F (1932)
Degree Days  
Heating Degree Days 0 3  
Month to date heating degree days 28  
Since 1 July heating degree days 45  
Cooling Degree Days 4 2  
Month to date cooling degree days 38  
Year to date cooling degree days 2016  
Growing Degree Days 18 (Base 50)    
Moisture  
Dew Point 65 °F    
Average Humidity 84    
Maximum Humidity 100    
Minimum Humidity 66    
Precipitation  
Precipitation 0.00 in 0.13 in 1.75 in (1898)
Month to date precipitation 1.45  
Year to date precipitation 34.86  
Sea Level Pressure  
Sea Level Pressure 29.92 in    
Wind  
Wind Speed 3 mph (South)    
Max Wind Speed 14 mph    
Max Gust Speed 22 mph    
Visibility 10 miles    
Events      
T = Trace of Precipitation, MM = Missing Value Source: NWS Daily Summary

Daily Weather History Graph

Daily Weather History Graph

Search for Another Location

Airport:

Trip Planner

Search our weather history database for the weather conditions in past years. The results will help you decide how hot, cold, wet, or windy it might be!

Date:

Astronomy

Oct. 11, 2013 Rise Set
Actual Time 7:21 AM CDT 6:48 PM CDT
Civil Twilight 6:55 AM CDT 7:13 PM CDT
Nautical Twilight 6:26 AM CDT 7:43 PM CDT
Astronomical Twilight 5:57 AM CDT 8:12 PM CDT
Moon 1:56 PM CDT (10/11) No Moon Set
Length of Visible Light 12h 17m
Length of Day
11h 27m
Waxing Crescent, 47% of the Moon is Illuminated
Oct 11
Waxing Crescent
Oct 11
First Quarter
Oct 18
Full
Oct 26
Last Quarter
Nov 3
New

Hourly Weather History & Observations

Time (CDT) Temp. Heat Index Dew Point Humidity Pressure Visibility Wind Dir Wind Speed Gust Speed Precip Events Conditions
12:15 AM 60.8 °F - 59.0 °F 94% 29.93 in 10.0 mi Calm Calm - N/A   Unknown
12:35 AM 60.8 °F - 57.2 °F 88% 29.93 in 10.0 mi Calm Calm - N/A   Unknown
12:55 AM 62.6 °F - 59.0 °F 88% 29.93 in 10.0 mi Calm Calm - N/A   Unknown
1:15 AM 62.6 °F - 57.2 °F 82% 29.93 in 10.0 mi Calm Calm - N/A   Unknown
1:55 AM 62.6 °F - 57.2 °F 82% 29.93 in 10.0 mi Calm Calm - N/A   Unknown
2:15 AM 59.0 °F - 57.2 °F 94% 29.93 in 10.0 mi Calm Calm - N/A   Unknown
2:35 AM 59.0 °F - 57.2 °F 94% 29.92 in 10.0 mi South 5.8 mph - N/A   Unknown
2:55 AM 62.6 °F - 59.0 °F 88% 29.93 in 10.0 mi Calm Calm - N/A   Unknown
3:15 AM 60.8 °F - 59.0 °F 94% 29.93 in 10.0 mi Calm Calm - N/A   Unknown
3:35 AM 60.8 °F - 59.0 °F 94% 29.93 in 10.0 mi Calm Calm - N/A   Unknown
3:55 AM 60.8 °F - 59.0 °F 94% 29.93 in 10.0 mi Calm Calm - N/A   Unknown
4:15 AM 60.8 °F - 60.8 °F 100% 29.93 in 10.0 mi Calm Calm - N/A   Unknown
4:35 AM 60.8 °F - 60.8 °F 100% 29.92 in 10.0 mi Calm Calm - N/A   Unknown
4:55 AM 59.0 °F - 59.0 °F 100% 29.93 in 10.0 mi Calm Calm - N/A   Unknown
5:15 AM 59.0 °F - 59.0 °F 100% 29.93 in 10.0 mi Calm Calm - N/A   Unknown
5:35 AM 59.0 °F - 59.0 °F 100% 29.93 in 10.0 mi Calm Calm - N/A   Unknown
5:55 AM 59.0 °F - 57.2 °F 94% 29.94 in 10.0 mi Calm Calm - N/A   Unknown
6:15 AM 59.0 °F - 59.0 °F 100% 29.94 in 10.0 mi Calm Calm - N/A   Unknown
6:35 AM 59.0 °F - 57.2 °F 94% 29.94 in 10.0 mi Calm Calm - N/A   Unknown
6:55 AM 59.0 °F - 59.0 °F 100% 29.95 in 10.0 mi Calm Calm - N/A   Unknown
7:15 AM 55.4 °F - 55.4 °F 100% 29.96 in 10.0 mi Calm Calm - N/A   Unknown
7:35 AM 59.0 °F - 59.0 °F 100% 29.96 in 10.0 mi Calm Calm - N/A   Unknown
7:55 AM 60.8 °F - 60.8 °F 100% 29.96 in 10.0 mi Calm Calm - N/A   Unknown
8:15 AM 60.8 °F - 60.8 °F 100% 29.96 in 10.0 mi Calm Calm - N/A   Unknown
8:35 AM 62.6 °F - 62.6 °F 100% 29.97 in 10.0 mi Calm Calm - N/A   Unknown
8:55 AM 66.2 °F - 64.4 °F 94% 29.97 in 10.0 mi Calm Calm - N/A   Unknown
9:15 AM 71.6 °F - 66.2 °F 83% 29.97 in 10.0 mi South 5.8 mph - N/A   Unknown
9:35 AM 71.6 °F - 66.2 °F 83% 29.96 in 10.0 mi SSE 8.1 mph - N/A   Unknown
9:55 AM 73.4 °F - 68.0 °F 83% 29.97 in 10.0 mi South 6.9 mph - N/A   Unknown
10:15 AM 77.0 °F - 68.0 °F 74% 29.97 in 10.0 mi South 9.2 mph - N/A   Unknown
10:35 AM 78.8 °F - 68.0 °F 69% 29.97 in 10.0 mi South 12.7 mph - N/A   Unknown
10:55 AM 77.0 °F - 68.0 °F 74% 29.96 in 10.0 mi South 9.2 mph - N/A   Unknown
11:15 AM 77.0 °F - 68.0 °F 74% 29.96 in 10.0 mi South 10.4 mph - N/A   Unknown
11:35 AM 77.0 °F - 68.0 °F 74% 29.95 in 10.0 mi SSE 11.5 mph 18.4 mph N/A   Unknown
11:55 AM 78.8 °F - 68.0 °F 69% 29.93 in 10.0 mi South 13.8 mph 19.6 mph N/A   Unknown
12:15 PM 77.0 °F - 68.0 °F 74% 29.93 in 10.0 mi South 8.1 mph - N/A   Unknown
12:35 PM 78.8 °F - 68.0 °F 69% 29.92 in 10.0 mi South 10.4 mph 19.6 mph N/A   Unknown
12:55 PM 78.8 °F - 69.8 °F 74% 29.91 in 10.0 mi South 9.2 mph - N/A   Unknown
1:15 PM 80.6 °F 83.9 °F 69.8 °F 70% 29.90 in 10.0 mi South 13.8 mph 19.6 mph N/A   Unknown
1:35 PM 80.6 °F 83.9 °F 69.8 °F 70% 29.90 in 10.0 mi South 10.4 mph 21.9 mph N/A   Unknown
1:55 PM 80.6 °F 83.9 °F 69.8 °F 70% 29.89 in 10.0 mi SSW 12.7 mph 19.6 mph N/A   Unknown
2:15 PM 82.4 °F 86.3 °F 69.8 °F 66% 29.88 in 10.0 mi South 9.2 mph 20.7 mph N/A   Unknown
2:35 PM 80.6 °F 83.9 °F 69.8 °F 70% 29.88 in 10.0 mi South 11.5 mph - N/A   Unknown
2:55 PM 80.6 °F 83.9 °F 69.8 °F 70% 29.87 in 10.0 mi SSE 8.1 mph - N/A   Unknown
3:15 PM 80.6 °F 83.9 °F 69.8 °F 70% 29.87 in 10.0 mi South 11.5 mph 17.3 mph N/A   Unknown
3:35 PM 80.6 °F 83.9 °F 69.8 °F 70% 29.87 in 10.0 mi SSE 9.2 mph - N/A   Unknown
3:55 PM 80.6 °F 83.9 °F 69.8 °F 70% 29.87 in 10.0 mi SSE 6.9 mph - N/A   Unknown
4:15 PM 80.6 °F 83.9 °F 69.8 °F 70% 29.87 in 10.0 mi SSE 9.2 mph - N/A   Unknown
4:35 PM 80.6 °F 83.9 °F 69.8 °F 70% 29.87 in 10.0 mi ESE 5.8 mph - N/A   Unknown
4:55 PM 80.6 °F 83.9 °F 69.8 °F 70% 29.87 in 10.0 mi SE 5.8 mph - N/A   Unknown
5:15 PM 78.8 °F - 69.8 °F 74% 29.87 in 10.0 mi SE 3.5 mph - N/A   Unknown
5:35 PM 80.6 °F 84.6 °F 71.6 °F 74% 29.87 in 10.0 mi SE 3.5 mph - N/A   Unknown
5:55 PM 80.6 °F 84.6 °F 71.6 °F 74% 29.87 in 10.0 mi SE 3.5 mph - N/A   Unknown
6:15 PM 78.8 °F - 69.8 °F 74% 29.88 in 10.0 mi SE 3.5 mph - N/A   Unknown
6:35 PM 78.8 °F - 71.6 °F 78% 29.88 in 10.0 mi SE 4.6 mph - N/A   Unknown
6:55 PM 77.0 °F - 69.8 °F 78% 29.88 in 10.0 mi Calm Calm - N/A   Unknown
7:15 PM 77.0 °F - 69.8 °F 78% 29.89 in 10.0 mi Calm Calm - N/A   Unknown
7:35 PM 77.0 °F - 69.8 °F 78% 29.90 in 10.0 mi Calm Calm - N/A   Unknown
7:55 PM 77.0 °F - 69.8 °F 78% 29.90 in 10.0 mi Calm Calm - N/A   Unknown
8:15 PM 77.0 °F - 69.8 °F 78% 29.89 in 10.0 mi Calm Calm - N/A   Unknown
8:35 PM 71.6 °F - 68.0 °F 88% 29.89 in 10.0 mi Calm Calm - N/A   Unknown
8:55 PM 71.6 °F - 68.0 °F 88% 29.90 in 10.0 mi Calm Calm - N/A   Unknown
9:15 PM 71.6 °F - 69.8 °F 94% 29.90 in 10.0 mi Calm Calm - N/A   Unknown
9:35 PM 71.6 °F - 69.8 °F 94% 29.90 in 10.0 mi Calm Calm - N/A   Unknown
9:55 PM 71.6 °F - 69.8 °F 94% 29.90 in 10.0 mi Calm Calm - N/A   Unknown
10:15 PM 71.6 °F - 69.8 °F 94% 29.91 in 10.0 mi Calm Calm - N/A   Unknown
10:35 PM 71.6 °F - 69.8 °F 94% 29.91 in 10.0 mi Calm Calm - N/A   Unknown
10:55 PM 71.6 °F - 69.8 °F 94% 29.92 in 10.0 mi South 3.5 mph - N/A   Unknown
11:15 PM 71.6 °F - 68.0 °F 88% 29.92 in 10.0 mi SSW 3.5 mph - N/A   Unknown
11:35 PM 71.6 °F - 68.0 °F 88% 29.92 in 10.0 mi SSW 4.6 mph - N/A   Unknown
11:55 PM 71.6 °F - 68.0 °F 88% 29.92 in 10.0 mi SSW 4.6 mph - N/A   Unknown